WB4FAY-4 Weather Reports


Display with metric or nautical units.
time (UTC)temp
F
wind
direction
speed
MPH
gust
MPH
rain 1hr
in
rain 24hr
in
rain mn
in
humidity
%
barometer
mb
20200124131117 51 265 2.0 7.0 0.00 0.18 0.11 97 1014.1
20200124130617 51 260 5.0 7.0 0.00 0.18 0.11 97 1014.0
20200124130117 51 285 0.0 8.0 0.00 0.18 0.11 97 1013.9
20200124125616 51 251 4.0 7.0 0.00 0.18 0.11 97 1013.9
20200124125117 51 237 1.0 7.0 0.00 0.18 0.11 97 1013.8
20200124124617 51 280 6.0 5.0 0.00 0.18 0.11 97 1013.8
20200124124117 52 285 0.0 3.0 0.00 0.18 0.11 97 1013.7
20200124123617 52 0 0.0 0.0 0.00 0.18 0.11 97 1013.7
20200124123118 52 0 0.0 0.0 0.00 0.18 0.11 97 1013.5
20200124122118 52 233 0.0 3.0 0.00 0.18 0.11 97 1013.5
20200124121617 52 241 0.0 6.0 0.00 0.18 0.11 97 1013.4
20200124120617 52 277 0.0 4.0 0.00 0.18 0.11 97 1013.3
20200124115617 52 254 0.0 4.0 0.00 0.18 0.11 97 1013.2
20200124115117 52 271 0.0 7.0 0.00 0.18 0.10 97 1013.2
20200124114617 52 251 4.0 4.0 0.00 0.18 0.10 97 1013.2
20200124114117 52 0 0.0 0.0 0.00 0.18 0.10 97 1013.1
20200124113617 52 0 0.0 0.0 0.00 0.18 0.10 97 1012.9
20200124113116 52 0 0.0 0.0 0.00 0.18 0.10 97 1012.8
20200124112117 52 0 0.0 0.0 0.00 0.18 0.10 97 1012.9
20200124111117 52 0 0.0 0.0 0.00 0.18 0.10 97 1012.9
20200124110617 52 0 0.0 0.0 0.00 0.18 0.10 97 1012.9
20200124110117 52 0 0.0 0.0 0.00 0.18 0.10 97 1012.9
20200124105616 52 0 0.0 0.0 0.00 0.18 0.10 97 1012.9
20200124105117 52 0 0.0 0.0 0.00 0.18 0.10 97 1012.9
20200124104617 52 0 0.0 0.0 0.00 0.18 0.10 97 1012.8
20200124104116 52 0 0.0 0.0 0.00 0.18 0.10 97 1012.7
20200124103617 52 0 0.0 0.0 0.00 0.18 0.10 97 1012.7
20200124103117 52 0 0.0 0.0 0.00 0.18 0.10 97 1012.8
20200124102617 52 0 0.0 0.0 0.00 0.18 0.10 97 1012.9
20200124102117 52 0 0.0 0.0 0.00 0.18 0.10 97 1012.8
20200124101617 52 0 0.0 0.0 0.00 0.18 0.10 97 1012.9
20200124101116 52 0 0.0 0.0 0.00 0.18 0.10 97 1012.9
20200124100616 52 186 0.0 4.0 0.00 0.18 0.10 97 1013.1
20200124100117 52 0 0.0 0.0 0.00 0.18 0.10 97 1012.9
20200124095617 52 0 0.0 0.0 0.00 0.18 0.10 97 1013.1
20200124095117 52 0 0.0 0.0 0.00 0.18 0.10 97 1013.1
20200124094616 52 0 0.0 0.0 0.00 0.18 0.10 97 1012.9
20200124094116 52 227 0.0 2.0 0.00 0.18 0.10 97 1012.9
20200124093617 52 0 0.0 0.0 0.00 0.18 0.10 97 1012.9
20200124093117 52 227 0.0 3.0 0.00 0.18 0.10 97 1012.9
20200124092616 52 193 1.0 2.0 0.00 0.18 0.10 97 1013.1
20200124092117 52 178 0.0 3.0 0.00 0.18 0.10 97 1013.1
20200124091117 52 0 0.0 0.0 0.00 0.18 0.10 97 1013.2
20200124090617 52 0 0.0 0.0 0.00 0.18 0.10 97 1013.3
20200124090117 52 0 0.0 0.0 0.00 0.18 0.10 97 1013.3
20200124085616 52 0 0.0 0.0 0.00 0.18 0.10 97 1013.3
20200124085117 52 220 0.0 4.0 0.00 0.18 0.10 97 1013.3
20200124084617 52 0 0.0 0.0 0.00 0.18 0.10 97 1013.4
20200124083617 51 0 0.0 0.0 0.00 0.18 0.09 97 1013.4
20200124083117 51 233 0.0 5.0 0.00 0.18 0.09 97 1013.4
20200124082617 51 191 0.0 4.0 0.00 0.18 0.09 97 1013.4
20200124081617 51 0 0.0 0.0 0.00 0.18 0.09 97 1013.4
20200124080617 51 185 3.0 6.0 0.00 0.18 0.09 97 1013.5
20200124080117 51 0 3.0 0.0 0.00 0.18 0.09 97 1013.4
20200124075617 51 203 0.0 3.0 0.00 0.18 0.09 97 1013.4
20200124075117 51 219 0.0 3.0 0.00 0.18 0.09 97 1013.4
20200124074617 51 0 0.0 0.0 0.00 0.18 0.09 97 1013.4
20200124074116 51 196 0.0 3.0 0.00 0.18 0.09 97 1013.4
20200124073617 51 0 0.0 0.0 0.00 0.18 0.09 97 1013.4
20200124073117 51 0 0.0 0.0 0.00 0.18 0.09 97 1013.5
20200124072617 51 0 0.0 0.0 0.00 0.18 0.09 97 1013.5
20200124072117 51 181 0.0 1.0 0.00 0.18 0.09 97 1013.6
20200124071617 51 196 0.0 2.0 0.00 0.18 0.09 97 1013.6
20200124071117 51 0 0.0 0.0 0.00 0.18 0.09 97 1013.7
20200124070617 51 206 0.0 2.0 0.00 0.18 0.09 97 1013.7
20200124070117 51 20 0.0 2.0 0.00 0.18 0.09 97 1013.6
20200124065617 51 0 0.0 0.0 0.00 0.18 0.09 97 1013.6
20200124065117 51 88 0.0 2.0 0.00 0.18 0.09 97 1013.6
20200124064617 51 0 0.0 0.0 0.00 0.18 0.09 97 1013.8
20200124064117 51 196 0.0 1.0 0.00 0.18 0.09 97 1013.8
20200124063616 51 0 0.0 0.0 0.00 0.18 0.09 97 1013.9
20200124063117 51 227 0.0 10.0 0.00 0.18 0.09 97 1014.1
20200124062617 51 198 5.0 7.0 0.00 0.18 0.09 97 1014.2
20200124062117 51 0 0.0 0.0 0.00 0.18 0.08 97 1014.1
20200124061617 51 0 0.0 0.0 0.00 0.18 0.02 97 1014.1
20200124061117 51 232 0.0 6.0 0.00 0.18 0.00 97 1014.0
20200124060617 51 220 4.0 7.0 0.00 0.18 0.00 97 1014.1
20200124060117 51 0 0.0 0.0 0.00 0.18 0.00 97 1014.1
20200124055617 51 0 0.0 0.0 0.00 0.00 0.18 97 1014.1
20200124055117 51 182 0.0 2.0 0.00 0.00 0.18 97 1014.2
20200124054118 50 0 0.0 0.0 0.00 0.00 0.18 97 1014.4
20200124053617 50 340 0.0 4.0 0.00 0.00 0.18 97 1014.4
20200124053117 50 302 0.0 5.0 0.00 0.00 0.18 97 1014.5
20200124052617 50 224 0.0 4.0 0.00 0.00 0.18 97 1014.4
20200124052117 50 0 0.0 0.0 0.00 0.00 0.18 97 1014.5
20200124051617 50 234 0.0 2.0 0.00 0.00 0.18 97 1014.8
20200124051117 50 0 0.0 0.0 0.00 0.00 0.18 97 1014.7
20200124050117 50 0 0.0 0.0 0.00 0.00 0.18 97 1014.8
20200124045617 50 0 0.0 0.0 0.00 0.00 0.18 97 1014.8
20200124045117 50 312 0.0 3.0 0.00 0.00 0.18 97 1014.7
20200124044117 50 134 0.0 7.0 0.00 0.00 0.18 97 1014.8
20200124043617 50 270 1.0 4.0 0.00 0.00 0.18 97 1014.8
20200124043117 50 112 0.0 4.0 0.00 0.00 0.18 97 1014.8
20200124042617 50 69 2.0 4.0 0.00 0.00 0.18 97 1015.0
20200124042117 50 339 3.0 5.0 0.00 0.00 0.18 97 1014.9
20200124041617 50 86 4.0 5.0 0.00 0.00 0.18 97 1014.8
20200124041117 50 0 0.0 0.0 0.00 0.00 0.17 97 1015.1
20200124040616 50 220 0.0 6.0 0.00 0.00 0.17 97 1015.0
20200124040118 50 251 1.0 7.0 0.00 0.00 0.17 97 1014.9
20200124035617 50 0 0.0 0.0 0.00 0.00 0.17 97 1014.9
20200124035117 50 0 0.0 0.0 0.00 0.00 0.17 97 1014.9
20200124034617 50 191 0.0 6.0 0.00 0.00 0.17 97 1014.9
20200124034117 50 289 4.0 7.0 0.00 0.00 0.17 97 1014.7
20200124033617 50 100 0.0 5.0 0.00 0.00 0.17 97 1014.7
20200124032617 50 353 0.0 4.0 0.00 0.00 0.17 97 1014.7
20200124032117 50 73 0.0 4.0 0.00 0.00 0.17 97 1014.8
20200124031616 50 161 0.0 5.0 0.00 0.00 0.17 97 1014.7
20200124030616 49 176 0.0 4.0 0.00 0.00 0.17 97 1014.8
20200124030117 49 332 0.0 4.0 0.00 0.00 0.17 97 1014.8
20200124025617 49 117 2.0 2.0 0.00 0.00 0.17 97 1014.8
20200124024617 49 62 0.0 8.0 0.00 0.00 0.17 97 1014.7
20200124024117 49 11 0.0 3.0 0.00 0.00 0.16 97 1014.8
20200124023117 49 79 0.0 3.0 0.00 0.00 0.16 97 1015.0
20200124022617 49 0 2.0 0.0 0.00 0.00 0.16 97 1015.0
20200124022117 49 0 0.0 0.0 0.00 0.00 0.16 97 1015.3
20200124021616 49 0 0.0 0.0 0.00 0.00 0.16 97 1015.2
20200124021117 49 0 0.0 0.0 0.00 0.00 0.16 97 1015.3
20200124020617 49 21 0.0 3.0 0.00 0.00 0.16 97 1015.4
20200124020117 49 0 0.0 0.0 0.00 0.00 0.16 97 1015.3
20200124015617 48 0 0.0 0.0 0.00 0.00 0.16 97 1015.4
20200124015116 48 0 0.0 0.0 0.00 0.00 0.16 97 1015.3
20200124014617 48 0 0.0 0.0 0.00 0.00 0.16 97 1015.4
20200124014117 48 34 0.0 3.0 0.00 0.00 0.16 97 1015.3
20200124013617 48 352 0.0 1.0 0.00 0.00 0.16 97 1015.3
20200124013117 48 0 0.0 0.0 0.00 0.00 0.16 97 1015.4
20200124012617 48 240 0.0 4.0 0.00 0.00 0.16 97 1015.4
20200124012117 48 0 0.0 0.0 0.00 0.00 0.16 97 1015.3
20200124011117 48 193 1.0 2.0 0.00 0.00 0.15 97 1015.3
20200124010617 48 75 0.0 7.0 0.00 0.00 0.15 97 1015.0
20200124010117 48 66 0.0 6.0 0.00 0.00 0.15 97 1014.6
20200124005117 48 100 2.0 4.0 0.00 0.00 0.15 97 1015.1
20200124004117 48 59 5.0 4.0 0.00 0.00 0.14 97 1015.2
20200124003617 48 64 1.0 5.0 0.00 0.00 0.14 97 1015.1
20200124002617 48 76 0.0 10.0 0.00 0.00 0.13 97 1015.1
20200124002117 48 58 4.0 6.0 0.00 0.00 0.13 97 1015.2
20200124001117 48 68 0.0 4.0 0.00 0.00 0.12 97 1015.3
20200124000616 48 61 0.0 5.0 0.00 0.00 0.12 97 1015.2
20200124000117 47 97 3.0 4.0 0.00 0.00 0.12 97 1015.2
20200123235617 48 107 3.0 7.0 0.00 0.00 0.12 97 1015.3
20200123235118 47 59 2.0 6.0 0.00 0.00 0.12 97 1015.3
20200123234617 47 92 0.0 6.0 0.00 0.00 0.11 97 1015.2
20200123234117 47 106 4.0 8.0 0.00 0.00 0.11 97 1015.1
20200123233617 47 72 6.0 7.0 0.00 0.00 0.11 97 1015.1
20200123233117 47 51 3.0 9.0 0.00 0.00 0.11 97 1015.1
20200123232617 47 137 8.0 8.0 0.00 0.00 0.11 97 1015.1
20200123232117 47 99 3.0 7.0 0.00 0.00 0.11 97 1015.2
20200123231617 47 93 2.0 8.0 0.00 0.00 0.11 97 1015.3
20200123231117 47 90 0.0 6.0 0.00 0.00 0.11 97 1015.3
20200123230617 47 71 2.0 4.0 0.00 0.00 0.11 97 1015.4
20200123225617 46 69 0.0 6.0 0.00 0.00 0.11 97 1015.5
20200123225117 46 96 0.0 6.0 0.00 0.00 0.10 97 1015.4
20200123224117 46 31 0.0 11.0 0.00 0.00 0.10 97 1015.4
20200123223617 46 112 3.0 4.0 0.00 0.00 0.10 97 1015.5
20200123223117 46 83 4.0 3.0 0.00 0.00 0.09 97 1015.6
20200123222617 46 117 1.0 7.0 0.00 0.00 0.09 97 1015.6
20200123222117 46 88 2.0 10.0 0.00 0.00 0.09 97 1015.7
20200123221617 46 100 2.0 6.0 0.00 0.00 0.09 97 1015.7
20200123221117 46 80 0.0 7.0 0.00 0.00 0.09 97 1015.8
20200123220617 46 97 1.0 9.0 0.00 0.00 0.09 97 1015.9
20200123220117 46 114 2.0 5.0 0.00 0.00 0.09 97 1015.8
20200123215617 46 93 1.0 6.0 0.00 0.00 0.09 97 1015.9
20200123215117 46 169 1.0 6.0 0.00 0.00 0.09 97 1016.0
20200123214617 46 106 2.0 6.0 0.00 0.00 0.09 97 1016.0
20200123214117 46 140 1.0 8.0 0.00 0.00 0.09 97 1015.9
20200123213617 45 107 3.0 6.0 0.00 0.00 0.09 97 1016.0
20200123213117 45 93 1.0 5.0 0.00 0.00 0.09 97 1016.0
20200123212617 45 79 3.0 4.0 0.00 0.00 0.09 97 1016.1
20200123212117 45 72 1.0 6.0 0.00 0.00 0.09 97 1016.2
20200123211616 45 119 4.0 7.0 0.00 0.00 0.09 96 1016.2
20200123211117 45 92 0.0 5.0 0.00 0.00 0.08 96 1016.3
20200123210617 45 82 4.0 5.0 0.00 0.00 0.08 96 1016.3
20200123210118 45 97 1.0 4.0 0.00 0.00 0.08 96 1016.4
20200123205617 45 95 2.0 4.0 0.00 0.00 0.08 96 1016.5
20200123204617 44 64 3.0 5.0 0.00 0.00 0.08 96 1016.6
20200123204118 44 112 2.0 4.0 0.00 0.00 0.08 96 1016.7
20200123203617 44 95 1.0 7.0 0.00 0.00 0.08 96 1016.7
20200123203117 44 148 4.0 6.0 0.00 0.00 0.08 96 1016.8
20200123202617 44 120 3.0 6.0 0.00 0.00 0.08 96 1016.8
20200123202117 44 72 3.0 6.0 0.00 0.00 0.08 96 1016.7
20200123201617 44 89 4.0 5.0 0.00 0.00 0.08 96 1016.8
20200123201117 44 100 3.0 4.0 0.00 0.00 0.08 96 1016.9
20200123200617 44 93 2.0 5.0 0.00 0.00 0.08 96 1016.9
20200123200117 44 99 4.0 5.0 0.00 0.00 0.08 96 1017.0
20200123195617 44 75 3.0 6.0 0.00 0.00 0.08 96 1016.9
20200123195116 44 96 0.0 3.0 0.00 0.00 0.06 96 1017.1
20200123194617 44 124 2.0 6.0 0.00 0.00 0.05 96 1017.0
20200123194117 44 48 1.0 6.0 0.00 0.00 0.05 96 1017.0
20200123193617 44 56 2.0 7.0 0.00 0.00 0.04 96 1017.1
20200123193117 44 0 0.0 0.0 0.00 0.00 0.04 96 1017.2
20200123191617 43 75 1.0 5.0 0.00 0.00 0.04 96 1017.5
20200123191117 43 90 1.0 4.0 0.00 0.00 0.04 96 1017.6
20200123190617 43 75 3.0 3.0 0.00 0.00 0.04 96 1017.7
20200123185617 43 64 1.0 6.0 0.00 0.00 0.04 96 1017.8
20200123185117 43 88 3.0 8.0 0.00 0.00 0.04 96 1018.0
20200123184617 43 100 1.0 6.0 0.00 0.00 0.04 96 1018.2
20200123184117 43 110 5.0 6.0 0.00 0.00 0.04 96 1018.2
20200123183117 42 80 3.0 6.0 0.00 0.00 0.04 96 1018.3
20200123182117 42 56 1.0 5.0 0.00 0.00 0.04 96 1018.6
20200123181617 42 93 2.0 7.0 0.00 0.00 0.04 96 1018.7
20200123181117 42 83 3.0 7.0 0.00 0.00 0.04 96 1018.8
20200123180617 42 92 3.0 6.0 0.00 0.00 0.04 96 1019.1
20200123180117 42 82 1.0 4.0 0.00 0.00 0.04 96 1019.2
20200123175617 42 0 0.0 0.0 0.00 0.00 0.04 96 1019.4
20200123175117 41 107 0.0 2.0 0.00 0.00 0.04 96 1019.5
20200123174617 41 93 0.0 2.0 0.00 0.00 0.04 96 1019.6
20200123173617 41 83 2.0 4.0 0.00 0.00 0.01 96 1019.9
20200123173117 41 88 1.0 7.0 0.00 0.00 0.01 96 1020.1
20200123172617 41 75 4.0 6.0 0.00 0.00 0.01 96 1020.2
20200123172117 41 95 4.0 5.0 0.00 0.00 0.01 96 1020.3
20200123171617 41 61 3.0 5.0 0.00 0.00 0.01 96 1020.5
20200123171117 41 61 1.0 7.0 0.00 0.00 0.01 96 1020.6
20200123170617 41 69 3.0 4.0 0.00 0.00 0.00 96 1020.7
20200123170117 41 75 0.0 5.0 0.00 0.00 0.00 96 1020.9
20200123165616 41 88 2.0 6.0 0.00 0.00 0.00 96 1020.9
20200123165117 41 90 2.0 5.0 0.00 0.00 0.00 96 1021.0
20200123164617 41 48 2.0 7.0 0.00 0.00 0.00 96 1021.0
20200123164117 40 79 3.0 7.0 0.00 0.00 0.00 96 1021.1
20200123163617 41 69 2.0 6.0 0.00 0.00 0.00 96 1021.1
20200123163117 40 104 5.0 6.0 0.00 0.00 0.00 96 1021.3
20200123162618 40 102 3.0 4.0 0.00 0.00 0.00 96 1021.4
20200123162117 40 65 0.0 2.0 0.00 0.00 0.00 96 1021.5
20200123161617 40 92 0.0 4.0 0.00 0.00 0.00 96 1021.6
20200123161117 40 96 2.0 5.0 0.00 0.00 0.00 96 1021.6
20200123160616 40 0 0.0 0.0 0.00 0.00 0.00 96 1021.8
20200123155616 40 89 3.0 7.0 0.00 0.00 0.00 96 1021.7
20200123154617 40 97 6.0 7.0 0.00 0.00 0.00 95 1021.6
20200123154116 40 100 3.0 7.0 0.00 0.00 0.00 95 1021.6
20200123153617 40 96 3.0 7.0 0.00 0.00 0.00 95 1021.7
20200123153117 40 114 5.0 5.0 0.00 0.00 0.00 95 1021.7
20200123152617 40 103 1.0 8.0 0.00 0.00 0.00 95 1021.7
20200123152117 40 93 3.0 7.0 0.00 0.00 0.00 95 1021.6
20200123151617 40 109 6.0 8.0 0.00 0.00 0.00 95 1021.6
20200123151117 40 102 3.0 8.0 0.00 0.00 0.00 95 1021.6
20200123150117 39 79 4.0 6.0 0.00 0.00 0.00 95 1021.7
20200123145617 40 72 3.0 5.0 0.00 0.00 0.00 95 1021.6
20200123145117 40 68 4.0 7.0 0.00 0.00 0.00 94 1021.6
20200123144617 40 93 4.0 8.0 0.00 0.00 0.00 94 1021.6
20200123144117 40 62 2.0 6.0 0.00 0.00 0.00 94 1021.7
20200123143617 40 113 5.0 9.0 0.00 0.00 0.00 94 1021.6
20200123143117 40 93 2.0 8.0 0.00 0.00 0.00 94 1021.7
20200123142617 40 95 4.0 10.0 0.00 0.00 0.00 94 1021.6
20200123142117 40 106 4.0 9.0 0.00 0.00 0.00 93 1021.5
20200123141619 40 80 6.0 12.0 0.00 0.00 0.00 93 1021.6
20200123141117 40 65 12.0 9.0 0.00 0.00 0.00 93 1021.6
20200123140617 40 96 6.0 8.0 0.00 0.00 0.00 93 1021.6
20200123140117 40 103 5.0 6.0 0.00 0.00 0.00 93 1021.6
20200123135617 40 68 4.0 7.0 0.00 0.00 0.00 92 1021.6
20200123135117 40 65 2.0 5.0 0.00 0.00 0.00 92 1021.7
20200123134617 40 65 3.0 8.0 0.00 0.00 0.00 92 1021.7
20200123133617 40 0 0.0 0.0 0.00 0.00 0.00 91 1021.7
20200123132617 39 0 0.0 0.0 0.00 0.00 0.00 91 1021.7
20200123132117 39 78 0.0 2.0 0.00 0.00 0.00 91 1021.7
20200123131617 39 35 0.0 6.0 0.00 0.00 0.00 90 1021.7